TITAN 3C TRANSTAGE R/B, 3692

Orbit data source: Space-Track

TITAN 3C TRANSTAGE R/B, 3692 is space debris in GEO originally from a launch on Sun, 09 Feb 1969 UTC launched from the Air Force Eastern Test Range (AFETR). Debris objects in space refer to the collection of defunct objects orbiting the Earth. Examples of debris include non-operational satellites, rocket bodies, and fragments generated from explosions, collisions, or faulty payload assembly.

Not visible in the next 10 days
Identifier
3692, 1969-013B
Orbit
GEO
Country
Flag of USUS
Related business
Manufacturer
Martin Marietta
Mission
Spacecraft
Bus & Motor
TRANSTAGE, Unknown motor
Mass
2,028 kg wet, 2,028 kg dry
Launch date (UTC)
1969-02-09 (57 years ago)
Launch vehicle
Unknown
Launch site
Air Force Eastern Test Range (AFETR)
Object type
Payload
Rocket body
Debris
Shape & HBR
Unknown
Radar Cross Section
Large (>1 m²)

Expand to show TLE details & history
Last TLE update: 6 hours ago

TLE from 6 hours ago
0 TITAN 3C TRANSTAGE R/B
1  3692U 69013B   26170.20747434 -.00000260  00000-0  00000+0 0  9994
2  3692   1.3155  77.6907 0165833  37.4009   5.3695  0.97536710 42341
Epoch: 2026-06-19T04:58Z
TLE epoch observation values (Epoch: 2026-06-19T04:58:45.782Z)
Latitude
0.91714°
Longitude
138.52698°
Altitude
35,859.739 km
Speed
3.097 km/s
True Right ascension
08h 02m 37s
True Declination
0° 54' 58"
Sunlit
Object was in daylight at epoch
Visualization orbit readout
Latitude
Unknown
Longitude
Unknown
Altitude
Unknown
Speed
Unknown
Apparent Right ascension
Unknown
Apparent Declination
Unknown
Sunlit
N/A
Visualization observer readout
Local Sidereal Time
21:34:56
Azimuth
Unknown
Elevation
Unknown
Doppler factor
Unknown
Orbital elements
Apogee altitude
37,284.508 km
Perigee altitude
35,859.99 km
Semi-major axis
42,950.386 km
Eccentricity
0.01658
Inclination
1.3155°
RAAN
77.6907°
Arg. of periapsis
37.4009°
True anomaly
5.55107°
Mean anomaly
5.3695°
Eccentric anomaly
5.45991°
Mean motion
0.24383 °/min
Orbital period
1,476.42 mins
BSTAR
0
Loading maneuver chart data...
Computing Atmospheric mass density...

Documentation

Showing up to 5 results
|